sat.trackr.live / text

‹ back to catalog

STARLINK-5775

NORAD 56503 · 2023-065A

PAYLOAD ACTIVE UNKNOWN

§ Identity

Operator
Country
US
Launch date
2023-05-14
Launch site
AFETR
Launch vehicle
Mass (kg)
RCS (m²)

Purposes: comms

External: N2YO · Heavens-Above · Gunter

§ Orbital elements

Epoch: 2026-05-24T11:34:57.670752Z

Period
94.27 min
Inclination
43.0023°
Eccentricity
0.0001446
Mean motion
15.27579848 rev/d
Perigee alt
482.1 km
Apogee alt
484.0 km
Semi-major
6,861.2 km
B*
-7.5817e-6
RAAN
144.2463°
Arg perigee
273.1588°
Mean anomaly
86.9098°
Rev number
16,819

§ Raw data

STARLINK-57751 56503U 23065A   26144.48261193 -.00000471  00000+0 -75817-5 0  99922 56503  43.0023 144.2463 0001446 273.1588  86.9098 15.27579848168197

JSON: /api/v1/satellites/56503 · /tle

For live sub-satellite position, see the globe view (requires WebGL).

§ Visibility from observer

Set your observer location to see the next 7 days of passes ≥ 10°. The values pass through the URL so the page stays shareable.

No JS? Fill the form by hand. The geolocation button needs JavaScript.